New Philadelphia, OH

2:40 PM EST on December 16, 2017 (GMT -0500)
Clever

Weather History for KPHD - August, 2014

Change the Weather History Date:

Friday, August 22, 2014

  Actual Average Record
Temperature  
Mean Temperature 76 °F 71 °F  
Max Temperature 83 °F 82 °F 94 °F (1968)
Min Temperature 68 °F 59 °F 40 °F (1982)
Degree Days  
Heating Degree Days 0 0  
Month to date heating degree days 13 0  
Since 1 June heating degree days 42 38  
Since 1 July heating degree days 32 3  
Cooling Degree Days 11 6  
Month to date cooling degree days 97 152  
Year to date cooling degree days 492 572  
Since 1 June cooling degree days 426 529  
Growing Degree Days 25 (Base 50)    
Moisture  
Dew Point 71 °F    
Average Humidity 90    
Maximum Humidity 100    
Minimum Humidity 79    
Precipitation  
Precipitation 0.84 in 0.12 in 1.07 in (1971)
Month to date precipitation 6.52 2.41  
Year to date precipitation 31.45 25.77  
Sea Level Pressure  
Sea Level Pressure 29.98 in    
Wind  
Wind Speed 2 mph (SSE)    
Max Wind Speed 18 mph    
Max Gust Speed 25 mph    
Visibility 6 miles    
Events Fog , Rain , Thunderstorm    
T = Trace of Precipitation, MM = Missing Value Source: NWS Daily Summary

Daily Weather History Graph

Daily Weather History Graph

Search for Another Location

Airport or City:

Trip Planner

Search our weather history database for the weather conditions in past years. The results will help you decide how hot, cold, wet, or windy it might be!

Date:

Astronomy

Aug. 22, 2014 Rise Set
Actual Time 6:43 AM EDT 8:13 PM EDT
Civil Twilight 6:14 AM EDT 8:41 PM EDT
Nautical Twilight 5:39 AM EDT 9:16 PM EDT
Astronomical Twilight 5:03 AM EDT 9:52 PM EDT
Moon 4:04 AM EDT (8/22) 6:20 PM EDT (8/22)
Length of Visible Light 14h 27m
Length of Day
13h 29m
Waning Crescent, 8% of the Moon is Illuminated
Aug 22
Waning Crescent
Aug 25
New
Sep 2
First Quarter
Sep 8
Full
Sep 15
Last Quarter

Hourly Weather History & Observations

Time (EDT) Temp. Heat Index Dew Point Humidity Pressure Visibility Wind Dir Wind Speed Gust Speed Precip Events Conditions
12:53 AM 69.1 °F - 66.9 °F 93% 30.01 in 10.0 mi SE 3.5 mph - 0.00 in   Clear
1:53 AM 69.1 °F - 68.0 °F 96% 30.02 in 9.0 mi Calm Calm - N/A   Scattered Clouds
2:13 AM 69.1 °F - 68.0 °F 96% 30.02 in 9.0 mi Calm Calm - N/A   Mostly Cloudy
2:53 AM 69.1 °F - 68.0 °F 96% 29.98 in 10.0 mi SE 3.5 mph - N/A   Overcast
3:53 AM 69.1 °F - 68.0 °F 96% 29.98 in 3.0 mi Calm Calm - 0.04 in Rain Rain
4:11 AM 69.1 °F - 68.0 °F 96% 29.99 in 4.0 mi Calm Calm - 0.03 in Rain Light Rain
4:48 AM 68.0 °F - 68.0 °F 100% 29.98 in 7.0 mi Calm Calm - 0.04 in   Overcast
5:53 AM 68.0 °F - 68.0 °F 100% 29.98 in 8.0 mi SSE 3.5 mph - N/A   Overcast
6:53 AM 69.1 °F - 69.1 °F 100% 29.99 in 5.0 mi Calm Calm - N/A   Overcast
8:53 AM 72.0 °F - 70.0 °F 93% 30.01 in 8.0 mi Calm Calm - N/A   Overcast
9:53 AM 73.0 °F - 70.0 °F 90% 30.00 in 7.0 mi Calm Calm - N/A   Overcast
10:53 AM 73.9 °F - 71.1 °F 91% 30.01 in 8.0 mi Calm Calm - N/A   Overcast
11:40 AM 73.9 °F - 71.1 °F 91% 30.01 in 7.0 mi West 3.5 mph - N/A   Overcast
11:53 AM 73.9 °F - 71.1 °F 91% 30.00 in 6.0 mi SSW 4.6 mph - N/A   Overcast
12:44 PM 75.9 °F - 71.1 °F 85% 30.01 in 10.0 mi South 3.5 mph - N/A   Overcast
12:53 PM 75.9 °F - 71.1 °F 85% 29.99 in 10.0 mi Calm Calm - N/A   Overcast
1:53 PM 77.0 °F - 72.0 °F 84% 29.99 in 10.0 mi South 4.6 mph - N/A   Overcast
2:06 PM 79.0 °F - 72.0 °F 79% 30.00 in 10.0 mi SE 3.5 mph - N/A   Mostly Cloudy
2:53 PM 81.0 °F 85.8 °F 73.0 °F 77% 29.96 in 10.0 mi SSE 4.6 mph - N/A   Partly Cloudy
3:29 PM 81.0 °F 85.8 °F 73.0 °F 77% 29.97 in 10.0 mi South 6.9 mph - N/A   Mostly Cloudy
3:42 PM 82.0 °F 87.4 °F 73.0 °F 74% 29.96 in 10.0 mi East 3.5 mph - N/A   Mostly Cloudy
3:53 PM 81.0 °F 85.8 °F 73.0 °F 77% 29.94 in 10.0 mi South 5.8 mph - N/A   Mostly Cloudy
4:53 PM 80.1 °F 84.2 °F 73.0 °F 79% 29.93 in 10.0 mi Calm Calm - N/A   Mostly Cloudy
5:53 PM 80.1 °F 84.2 °F 73.0 °F 79% 29.94 in 6.0 mi Calm Calm - 0.01 in Rain Light Rain
6:53 PM 80.1 °F 85.1 °F 75.0 °F 85% 29.93 in 10.0 mi Calm Calm - 0.01 in Thunderstorm Overcast
7:11 PM 79.0 °F - 73.9 °F 84% 29.95 in 9.0 mi Calm Calm - 0.00 in Rain Light Rain
7:27 PM 77.0 °F - 73.9 °F 90% 29.96 in 6.0 mi North 8.1 mph - 0.01 in Rain , Thunderstorm Light Rain
7:30 PM 75.9 °F - 73.9 °F 94% 29.96 in 2.5 mi NE 9.2 mph - 0.06 in Rain , Thunderstorm Rain
7:33 PM 73.9 °F - 73.0 °F 97% 29.97 in 1.0 mi NE 12.7 mph 21.9 mph 0.21 in Rain , Thunderstorm Heavy Rain
7:39 PM 73.9 °F - 72.0 °F 93% 29.96 in 0.5 mi NNE 10.4 mph 25.3 mph 0.49 in Fog , Rain , Thunderstorm Heavy Thunderstorms and Rain
7:46 PM 73.9 °F - 72.0 °F 93% 29.98 in 0.8 mi West 9.2 mph 18.4 mph 0.51 in Rain , Thunderstorm Light Thunderstorms and Rain
7:48 PM 73.4 °F - 71.6 °F 94% 29.98 in 1.2 mi Variable 4.6 mph 18.4 mph 0.52 in Rain , Thunderstorm Light Thunderstorms and Rain
7:53 PM 73.0 °F - 72.0 °F 96% 29.96 in 0.8 mi SSW 6.9 mph - 0.68 in Rain , Thunderstorm Heavy Thunderstorms and Rain
8:01 PM 73.0 °F - 71.1 °F 93% 29.97 in 1.0 mi SE 4.6 mph - 0.04 in Rain , Thunderstorm Thunderstorms and Rain
8:04 PM 72.0 °F - 71.1 °F 97% 29.97 in 2.5 mi South 4.6 mph - 0.04 in Rain , Thunderstorm Thunderstorms and Rain
8:06 PM 72.0 °F - 71.1 °F 97% 29.97 in 3.0 mi South 6.9 mph - 0.05 in Rain , Thunderstorm Light Thunderstorms and Rain
8:12 PM 72.0 °F - 70.0 °F 93% 29.97 in 6.0 mi South 5.8 mph - 0.06 in Rain Light Rain
8:53 PM 70.0 °F - 70.0 °F 100% 29.96 in 10.0 mi North 3.5 mph - 0.06 in   Partly Cloudy
9:53 PM 71.1 °F - 70.0 °F 96% 29.97 in 10.0 mi Calm Calm - N/A   Scattered Clouds
10:25 PM 70.0 °F - 69.1 °F 97% 29.99 in 1.8 mi Calm Calm - N/A   Mostly Cloudy
10:33 PM 70.0 °F - 69.1 °F 97% 29.99 in 0.8 mi Calm Calm - N/A   Scattered Clouds
10:40 PM 70.0 °F - 69.1 °F 97% 30.00 in 0.5 mi Calm Calm - N/A Fog Fog
10:45 PM 69.1 °F - 69.1 °F 100% 30.00 in 1.5 mi Calm Calm - N/A   Mostly Cloudy
10:48 PM 69.8 °F - 69.8 °F 100% 30.00 in 3.0 mi Calm Calm - N/A   Mostly Cloudy
10:53 PM 70.0 °F - 69.1 °F 97% 29.99 in 3.0 mi Calm Calm - N/A   Mostly Cloudy
10:55 PM 70.0 °F - 69.1 °F 97% 30.00 in 1.5 mi Calm Calm - N/A   Mostly Cloudy
10:59 PM 70.0 °F - 70.0 °F 100% 30.00 in 0.8 mi Calm Calm - N/A   Mostly Cloudy
11:05 PM 70.0 °F - 69.1 °F 97% 30.01 in 1.0 mi Calm Calm - N/A   Mostly Cloudy
11:09 PM 70.0 °F - 69.1 °F 97% 30.01 in 2.5 mi Calm Calm - N/A   Mostly Cloudy
11:16 PM 69.1 °F - 69.1 °F 100% 30.01 in 8.0 mi SE 3.5 mph - N/A   Mostly Cloudy
11:53 PM 70.0 °F - 70.0 °F 100% 30.00 in 5.0 mi Calm Calm - N/A   Overcast